Weather History for Shawnee, OK

Change the Weather History Date:

Friday, March 21, 2014

  Actual Average (KTIK) Record (KTIK)
Temperature  
Mean Temperature 68 °F -  
Max Temperature 80 °F 60 °F 91 °F (1997)
Min Temperature 55 °F 40 °F 26 °F (2002)
Cooling Degree Days 2    
Growing Degree Days 18 (Base 50)    
Moisture  
Dew Point 44 °F    
Average Humidity 45    
Maximum Humidity 59    
Minimum Humidity 33    
Precipitation  
Precipitation 0.00 in - - ()
Sea Level Pressure  
Sea Level Pressure 29.87 in    
Wind  
Wind Speed 9 mph (SSW)    
Max Wind Speed 15 mph    
Max Gust Speed 23 mph    
Visibility 10 miles    
Events      
Averages and records for this station are not official NWS values.
T = Trace of Precipitation, MM = Missing Value Source: NWS Daily Summary

Daily Weather History Graph

Daily Weather History Graph

Search for Another Location

Airport:

Trip Planner

Search our weather history database for the weather conditions in past years. The results will help you decide how hot, cold, wet, or windy it might be!

Date:

Astronomy

Mar. 21, 2014 Rise Set
Actual Time 7:29 AM CDT 7:40 PM CDT
Civil Twilight 7:04 AM CDT 8:05 PM CDT
Nautical Twilight 6:34 AM CDT 8:35 PM CDT
Astronomical Twilight 6:04 AM CDT 9:05 PM CDT
Moon No Moon Rise 10:32 AM CDT (3/21)
Length of Visible Light 13h 01m
Length of Day
12h 10m
Waning Gibbous, 75% of the Moon is Illuminated
Mar 21
Waning Gibbous
Mar 23
Last Quarter
Mar 30
New
Apr 7
First Quarter
Apr 15
Full

Hourly Weather History & Observations

Time (CDT) Temp. Heat Index Dew Point Humidity Pressure Visibility Wind Dir Wind Speed Gust Speed Precip Events Conditions
12:15 AM 59.0 °F - 35.6 °F 42% 29.95 in 10.0 mi South 9.2 mph - N/A   Clear
12:35 AM 59.0 °F - 35.6 °F 42% 29.94 in 10.0 mi SSE 8.1 mph - N/A   Clear
12:55 AM 55.4 °F - 35.6 °F 47% 29.94 in 10.0 mi South 8.1 mph - N/A   Clear
1:15 AM 55.4 °F - 35.6 °F 47% 29.93 in 10.0 mi South 9.2 mph - N/A   Clear
1:35 AM 55.4 °F - 35.6 °F 47% 29.92 in 10.0 mi South 10.4 mph - N/A   Clear
1:55 AM 57.2 °F - 35.6 °F 44% 29.92 in 10.0 mi South 9.2 mph - N/A   Clear
2:15 AM 55.4 °F - 35.6 °F 47% 29.91 in 10.0 mi South 10.4 mph - N/A   Clear
2:35 AM 55.4 °F - 35.6 °F 47% 29.91 in 10.0 mi South 10.4 mph - N/A   Clear
2:55 AM 55.4 °F - 35.6 °F 47% 29.91 in 10.0 mi South 8.1 mph - N/A   Clear
3:15 AM 55.4 °F - 35.6 °F 47% 29.90 in 10.0 mi South 6.9 mph - N/A   Clear
3:35 AM 55.4 °F - 35.6 °F 47% 29.89 in 10.0 mi South 6.9 mph - N/A   Clear
3:55 AM 55.4 °F - 37.4 °F 51% 29.87 in 10.0 mi South 9.2 mph - N/A   Clear
4:15 AM 55.4 °F - 37.4 °F 51% 29.87 in 10.0 mi South 9.2 mph - N/A   Clear
4:35 AM 55.4 °F - 37.4 °F 51% 29.86 in 10.0 mi South 8.1 mph - N/A   Clear
4:55 AM 55.4 °F - 37.4 °F 51% 29.85 in 10.0 mi South 9.2 mph - N/A   Clear
5:15 AM 57.2 °F - 37.4 °F 48% 29.85 in 10.0 mi South 10.4 mph - N/A   Clear
5:35 AM 59.0 °F - 39.2 °F 48% 29.84 in 10.0 mi South 11.5 mph - N/A   Clear
5:55 AM 59.0 °F - 39.2 °F 48% 29.84 in 10.0 mi South 10.4 mph - N/A   Clear
6:15 AM 59.0 °F - 39.2 °F 48% 29.84 in 10.0 mi South 11.5 mph - N/A   Clear
6:35 AM 59.0 °F - 41.0 °F 51% 29.83 in 10.0 mi South 11.5 mph - N/A   Clear
6:55 AM 59.0 °F - 41.0 °F 51% 29.84 in 10.0 mi South 10.4 mph 17.3 mph N/A   Clear
7:15 AM 59.0 °F - 41.0 °F 51% 29.84 in 10.0 mi South 11.5 mph - N/A   Clear
7:35 AM 59.0 °F - 42.8 °F 55% 29.84 in 10.0 mi South 10.4 mph - N/A   Clear
7:55 AM 57.2 °F - 41.0 °F 55% 29.85 in 10.0 mi South 9.2 mph - N/A   Clear
8:15 AM 57.2 °F - 42.8 °F 59% 29.85 in 10.0 mi South 8.1 mph - N/A   Clear
8:35 AM 57.2 °F - 42.8 °F 59% 29.85 in 10.0 mi South 9.2 mph - N/A   Clear
8:55 AM 59.0 °F - 42.8 °F 55% 29.85 in 10.0 mi South 8.1 mph - N/A   Clear
9:15 AM 59.0 °F - 42.8 °F 55% 29.85 in 10.0 mi South 10.4 mph - N/A   Clear
9:35 AM 60.8 °F - 44.6 °F 55% 29.84 in 10.0 mi South 9.2 mph 17.3 mph N/A   Clear
9:55 AM 62.6 °F - 44.6 °F 52% 29.84 in 10.0 mi South 10.4 mph 17.3 mph N/A   Clear
10:15 AM 62.6 °F - 46.4 °F 55% 29.83 in 10.0 mi SSW 11.5 mph 19.6 mph N/A   Clear
10:35 AM 66.2 °F - 48.2 °F 52% 29.83 in 10.0 mi South 15.0 mph 23.0 mph N/A   Clear
10:55 AM 68.0 °F - 50.0 °F 52% 29.82 in 10.0 mi SSW 13.8 mph 19.6 mph N/A   Clear
11:15 AM 68.0 °F - 51.8 °F 56% 29.83 in 10.0 mi SSW 11.5 mph - N/A   Clear
11:35 AM 71.6 °F - 53.6 °F 53% 29.82 in 10.0 mi SSW 15.0 mph 19.6 mph N/A   Clear
11:55 AM 71.6 °F - 51.8 °F 50% 29.83 in 10.0 mi SSW 13.8 mph 18.4 mph N/A   Clear
12:15 PM 71.6 °F - 53.6 °F 53% 29.83 in 10.0 mi SW 11.5 mph - N/A   Clear
12:35 PM 73.4 °F - 53.6 °F 50% 29.83 in 10.0 mi SW 10.4 mph - N/A   Clear
12:55 PM 77.0 °F - 55.4 °F 47% 29.84 in 10.0 mi SW 13.8 mph - N/A   Clear
1:15 PM 77.0 °F - 55.4 °F 47% 29.84 in 10.0 mi SW 10.4 mph - N/A   Clear
1:35 PM 77.0 °F - 53.6 °F 44% 29.83 in 10.0 mi WSW 10.4 mph - N/A   Clear
1:55 PM 77.0 °F - 53.6 °F 44% 29.83 in 10.0 mi SW 10.4 mph - N/A   Clear
2:15 PM 77.0 °F - 53.6 °F 44% 29.83 in 10.0 mi WSW 9.2 mph - N/A   Clear
2:35 PM 77.0 °F - 51.8 °F 41% 29.83 in 10.0 mi WSW 5.8 mph - N/A   Clear
2:55 PM 78.8 °F - 53.6 °F 42% 29.82 in 10.0 mi West 8.1 mph - N/A   Clear
3:15 PM 80.6 °F 80.3 °F 53.6 °F 39% 29.82 in 10.0 mi West 5.8 mph - N/A   Clear
3:35 PM 78.8 °F - 53.6 °F 42% 29.82 in 10.0 mi West 8.1 mph - N/A   Scattered Clouds
3:55 PM 78.8 °F - 53.6 °F 42% 29.82 in 10.0 mi WSW 4.6 mph - N/A   Clear
4:15 PM 80.6 °F 80.3 °F 53.6 °F 39% 29.82 in 10.0 mi WNW 3.5 mph - N/A   Clear
4:35 PM 80.6 °F 80.3 °F 53.6 °F 39% 29.82 in 10.0 mi WNW 3.5 mph - N/A   Scattered Clouds
4:55 PM 78.8 °F - 51.8 °F 39% 29.82 in 10.0 mi Calm Calm - N/A   Clear
5:15 PM 80.6 °F - 51.8 °F 37% 29.82 in 10.0 mi NW 4.6 mph - N/A   Clear
5:35 PM 80.6 °F - 51.8 °F 37% 29.83 in 10.0 mi North 4.6 mph - N/A   Clear
5:55 PM 78.8 °F - 50.0 °F 36% 29.83 in 10.0 mi North 8.1 mph - N/A   Clear
6:15 PM 77.0 °F - 48.2 °F 36% 29.84 in 10.0 mi North 6.9 mph - N/A   Clear
6:35 PM 77.0 °F - 46.4 °F 34% 29.85 in 10.0 mi North 8.1 mph - N/A   Mostly Cloudy
6:55 PM 73.4 °F - 42.8 °F 33% 29.86 in 10.0 mi North 9.2 mph - N/A   Mostly Cloudy
7:15 PM 73.4 °F - 42.8 °F 33% 29.87 in 10.0 mi North 9.2 mph - N/A   Mostly Cloudy
7:35 PM 71.6 °F - 42.8 °F 35% 29.89 in 10.0 mi North 9.2 mph - N/A   Scattered Clouds
7:55 PM 71.6 °F - 42.8 °F 35% 29.90 in 10.0 mi North 6.9 mph - N/A   Scattered Clouds
8:15 PM 68.0 °F - 42.8 °F 40% 29.91 in 10.0 mi North 9.2 mph - N/A   Mostly Cloudy
8:35 PM 68.0 °F - 42.8 °F 40% 29.92 in 10.0 mi North 10.4 mph - N/A   Scattered Clouds
8:55 PM 68.0 °F - 42.8 °F 40% 29.94 in 10.0 mi North 9.2 mph 17.3 mph N/A   Mostly Cloudy
9:15 PM 66.2 °F - 41.0 °F 40% 29.95 in 10.0 mi North 11.5 mph 17.3 mph N/A   Overcast
9:35 PM 66.2 °F - 39.2 °F 37% 29.96 in 10.0 mi NNE 9.2 mph - N/A   Overcast
9:55 PM 64.4 °F - 37.4 °F 37% 29.97 in 10.0 mi North 11.5 mph - N/A   Mostly Cloudy
10:15 PM 62.6 °F - 37.4 °F 39% 29.98 in 10.0 mi North 10.4 mph - N/A   Mostly Cloudy
10:35 PM 62.6 °F - 35.6 °F 37% 29.99 in 10.0 mi NNE 8.1 mph - N/A   Scattered Clouds
10:55 PM 60.8 °F - 35.6 °F 39% 30.00 in 10.0 mi NNE 6.9 mph - N/A   Mostly Cloudy
11:15 PM 62.6 °F - 35.6 °F 37% 30.02 in 10.0 mi NNE 6.9 mph - N/A   Overcast
11:35 PM 60.8 °F - 35.6 °F 39% 30.03 in 10.0 mi North 8.1 mph - N/A   Mostly Cloudy
11:55 PM 60.8 °F - 35.6 °F 39% 30.03 in 10.0 mi NNE 8.1 mph - N/A   Scattered Clouds